www.pogodaiklimat.ru

Погода и климат >> Архив погоды >> Филиппины >> Сан-Хосе


ПОГОДА в Сан-Хосе

  • Прогноз погоды в Сан-Хосе
  • Монитор погоды в Сан-Хосе

АРХИВ ПОГОДЫ в Сан-Хосе

Время (UTC), дата Ветер
(напр.,м/с)
 
Видим.   Явления Облачность Т
(С)
Тd
(С)
f
(%)
Тe
(С)
Тes
(С)
Комфортность P
(гПа)
Po
(гПа)
Тmin
(С)
Tmax
(С)
R
(мм)
R24
(мм)
S
(см)
15 18.08 З 4 12 км зарница {туман} 3/3 570 м
[Cb cap]
+27.2 +26.7 97 +42 +42 опасность
перегрева
1011.2 1010.8
18 18.08 СЗ 2 12 км мгла {туман} 1/1 600 м
[Cu med, cong Ac trans]
+25.8 +24.7 94 +37 +37 очень
душно
1009.1 1008.7
21 18.08 СЗ 1 15 км мгла {туман} 1/1 600 м
[Cu med, cong Ci fib]
+25.1 +24.7 98 +35 +35 очень
душно
1008.3 1007.9
00 19.08 СЗ 2 18 км мгла {туман} 1/1 600 м
[Cu med, cong Ci fib]
+27.8 +26.2 91 +42 +48 опасность
перегрева
1008.8 1008.4 +21.4 0.1
03 19.08 З 4 15 км осадки на расстоянии {туман} 3/3 570 м
[Cb cap Ci fib]
+31.5 +27.0 77 +49 +59 опасность
перегрева
1008.5 1008.1
06 19.08 З 5 15 км слаб. ливневой дождь {туман} 5/3 570 м
[Cb cap Ci sp]
+29.9 +27.5 87 +48 +54 опасность
перегрева
1008.0 1007.6 31
09 19.08 З 7 15 км мгла {туман} 3/1 570 м
[Cb cap Ac trans]
+30.7 +27.2 82 +49 +49 опасность
перегрева
1006.5 1006.1 0.0
12 19.08 З 3 12 км осадки на расстоянии {ливн. осадки, туман} 4/3 570 м
[Cb cap Ac trans]
+28.6 +26.4 88 +44 +44 опасность
перегрева
1008.8 1008.4 +32.3 0.0
15 19.08 СЗ 2 12 км зарница {туман} 4/1 570 м
[Cb cap Ci sp]
+27.2 +25.1 88 +39 +39 очень
душно
1009.2 1008.8
18 19.08 С 1 12 км мгла {туман} 5/1 600 м
[Cu med, cong Ac trans]
+26.4 +24.5 89 +37 +37 очень
душно
1007.5 1007.1
21 19.08 С 1 15 км мгла {туман} 6/1 600 м
[Cu med, cong Ac trans]
+25.5 +24.0 91 +35 +35 очень
душно
1006.8 1006.4
00 20.08 СЗ 3 15 км мгла {туман} 9/1 570 м
[Cb cap Ac trans]
+27.9 +26.3 91 +42 +45 опасность
перегрева
1009.2 1008.8 +21.9 31
03 20.08 З 3 18 км мгла {туман} 3/1 600 м
[Cu med, cong Ci fib]
+31.0 +27.0 79 +48 +63 опасность
перегрева
1009.1 1008.7
06 20.08 З 2 18 км мгла {туман} 9/1 600 м
[Cu med, cong Cs]
+32.0 +27.3 76 +50 +63 опасность
перегрева
1007.0 1006.6
09 20.08 ЮЗ 1 12 км осадки на расстоянии {ливн. осадки, туман} 9/3 570 м
[Cb cap As trans]
+28.9 +25.6 82 +43 +43 опасность
перегрева
1007.8 1007.4 1
12 20.08 С 2 10 км в посл. час гроза {дождь} 8/3 570 м
[Cb cap Ac trans]
+26.6 +26.1 97 +40 +40 очень
душно
1009.2 1008.8 +33.4 5
15 20.08 СЗ 3 10 км зарница {дождь, туман} 10/3 570 м
[Cb cap Ac As]
+24.8 +24.1 96 +34 +34 очень
душно
1009.6 1009.2
18 20.08 З 6 8000 м слаб. дождь {туман} 10/3 570 м
[Cb cap Ac As]
+25.1 +24.4 96 +35 +35 очень
душно
1008.6 1008.2 0.6
21 20.08 С 3 10 км в посл. час ливневой дождь {туман} 10/3 570 м
[Cb cap Ac As]
+24.4 +23.9 97 +33 +33 очень
душно
1008.0 1007.6 2
00 21.08 СЗ 2 15 км осадки на расстоянии {туман} 10/1 570 м
[Cb cap Ac As]
+25.4 +23.9 91 +35 +36 очень
душно
1009.3 1008.9 +20.8 8
03 21.08 З 3 15 км мгла {туман} 9/1 600 м
[Sc diur, vesp Ac trans]
+29.4 +25.9 81 +44 +51 опасность
перегрева
1009.1 1008.7
06 21.08 З 6 15 км в посл. час ливневой дождь {туман} 10/4 570 м
[Sc Ac As]
+26.4 +26.0 98 +39 +41 очень
душно
1008.3 1007.9 5
09 21.08 З 5 10 км слаб. дождь 10/4 570 м
[Sc Ac As]
+26.6 +25.1 91 +38 +38 очень
душно
1008.8 1008.4 0.6
12 21.08 С 1 8000 м в посл. час ливневой дождь {туман} 10/4 570 м
[Sc Ac As]
+24.4 +23.5 95 +33 +33 очень
душно
1010.0 1009.6 +32.0 5
15 21.08 СЗ 1 10 км мгла {туман} 10/3 570 м
[Sc Ac As]
+24.4 +23.5 95 +33 +33 очень
душно
1010.2 1009.8
18 21.08 З 4 15 км мгла {туман} 9/1 600 м
[Cu med, cong Ac trans]
+24.8 +23.6 93 +34 +34 очень
душно
1007.9 1007.5
21 21.08 З 9 12 км осадки на расстоянии {туман} 10/3 570 м
[Sc Ac As]
+26.8 +24.9 89 +38 +38 очень
душно
1008.1 1007.7
00 22.08 СЗ 4 15 км мгла {туман} 8/1 600 м
[Cu med, cong Ac trans]
+27.0 +25.0 89 +39 +41 очень
душно
1008.4 1008.0 +20.8 10
03 22.08 ЮЗ 2 8000 м осадки на расстоянии {туман} 10/3 570 м
[Cb cap Ac As]
+29.0 +26.3 85 +44 +48 опасность
перегрева
1009.0 1008.6
06 22.08 ЮЗ 4 15 км в посл. час ливневой дождь {туман} 10/3 570 м
[Cb cap Ac As]
+28.8 +27.8 94 +47 +49 опасность
перегрева
1007.5 1007.1 3
09 22.08 З 2 18 км мгла {туман} 10/3 570 м
[Sc Ac As]
+28.1 +26.6 92 +44 +44 опасность
перегрева
1006.7 1006.3
12 22.08 З 1 10 км зарница {туман} 10/1 570 м
[Cb cap Ac As]
+27.2 +25.6 91 +40 +40 очень
душно
1008.7 1008.3 +30.8
15 22.08 С 1 5000 м гроза, ливневой дождь 10/3 570 м
[Cb cap As op]
+25.2 +24.4 95 +35 +35 очень
душно
1009.7 1009.3
18 22.08 З 8 2000 м дождь {гроза, ливн. осадки} 10/4 570 м
[Sc As op]
+24.2 +24.0 99 +33 +33 очень
душно
1008.6 1008.2 21
21 22.08 З 2 5000 м слаб. ливневой дождь {туман} 10/4 570 м
[Sc Ac As]
+24.0 +23.5 97 +32 +32 очень
душно
1007.5 1007.1 2
00 23.08 З 2 5000 м дождь 10/4 570 м
[Sc As op]
+23.7 +23.3 98 +32 +33 очень
душно
1008.3 1007.9 +20.3 34
03 23.08 СЗ 3 5000 м дождь 10/4 570 м
[Sc As op]
+24.4 +24.2 99 +34 +36 очень
душно
1009.7 1009.3 17
06 23.08 З 4 15 км в посл. час дождь {туман} 10/4 570 м
[Sc Ac As]
+26.2 +25.7 97 +39 +41 очень
душно
1007.1 1006.7 17
09 23.08 З 3 15 км слаб. ливневой дождь {туман} 10/4 570 м
[Sc Ac As]
+26.4 +25.8 97 +39 +39 очень
душно
1007.6 1007.2 0.1
12 23.08 З 4 8000 м слаб. ливневой дождь {туман} 10/4 570 м
[Sc As op]
+25.8 +24.5 93 +36 +36 очень
душно
1007.2 1006.8 +27.8 1
15 23.08 З 3 10 км мгла {туман} 9/1 570 м
[Cb cap Ac trans]
+25.8 +24.0 90 +36 +36 очень
душно
1007.0 1006.6 0.0
18 23.08 СВ 1 10 км мгла {туман} 9/1 570 м
[Cb cap Ac As]
+25.2 +23.6 91 +34 +34 очень
душно
1006.1 1005.7 0.0
21 23.08 ЮЗ 4 4000 м слаб. дождь {туман} 10/5 570 м
[Sc As op]
+24.8 +24.3 97 +34 +34 очень
душно
1006.5 1006.1 25
00 24.08 З 3 10 км осадки на расстоянии {туман} 10/4 570 м
[Cb cap Ac As]
+26.0 +25.6 98 +38 +39 очень
душно
1009.1 1008.7 +20.5 47
03 24.08 ЮЗ 2 8000 м слаб. ливневой дождь {туман} 10/4 570 м
[Sc Ac As]
+27.0 +26.4 97 +41 +45 опасность
перегрева
1009.1 1008.7 0.2
06 24.08 ЮЗ 3 8000 м слаб. ливневой дождь {туман} 10/4 570 м
[Sc Ac As]
+29.2 +27.4 90 +47 +49 опасность
перегрева
1007.4 1007.0 0.0
09 24.08 ЮЗ 2 5000 м гроза, ливневой дождь 10/4 570 м
[Sc As op]
+26.2 +24.9 93 +37 +38 очень
душно
1007.7 1007.3 6
12 24.08 СВ 1 8000 м слаб. дождь {гроза} 10/3 570 м
[Sc As op]
+25.2 +24.7 97 +35 +35 очень
душно
1009.7 1009.3 +30.5 9
15 24.08 З 2 2000 м гроза, ливневой дождь 10/4 570 м
[Cb cap As op]
+25.0 +24.8 99 +35 +35 очень
душно
1010.7 1010.3 11
18 24.08 С 1 10 км зарница {гроза, ливн. осадки} 10/3 570 м
[Cb cap Ac As]
+25.2 +24.7 97 +35 +35 очень
душно
1008.3 1007.9 12
21 24.08 С 1 12 км мгла {туман} 9/1 570 м
[Cb cap Ac As]
+26.2 +25.4 95 +38 +38 очень
душно
1008.2 1007.8
00 25.08 С 1 15 км мгла {туман} 10/1 600 м
[Sc diur, vesp Ac As]
+26.5 +25.9 97 +40 +42 очень
душно
1009.5 1009.1 +21.1 21
03 25.08 ЮЗ 2 18 км мгла {туман} 8/1 600 м
[Cu med, cong Cs]
+30.1 +27.9 88 +50 +65 опасность
перегрева
1010.3 1009.9
06 25.08 ЮЗ 1 15 км мгла {туман} 10/1 570 м
[Cb cap Ac As]
+30.4 +27.7 86 +50 +55 опасность
перегрева
1008.0 1007.6
09 25.08 Ю 2 8000 м гроза, ливневой дождь {туман} 10/4 570 м
[Cb cap Ac As]
+29.2 +28.2 94 +49 +49 опасность
перегрева
1007.6 1007.2 2
12 25.08 ЮЗ 1 8000 м гроза, ливневой дождь 10/3 570 м
[Cb cap Ac As]
+27.1 +25.9 93 +40 +40 очень
душно
1011.0 1010.6 +32.0 2

 

Местоположение метеостанции Сан-Хосе (Филиппины): широта 12.35 долгота 121.03 высота над уровнем моря 3 м.

В архиве по умолчанию представлена погода в Сан-Хосе за последнюю неделю. Архивные данные за месяц целиком и за предыдущие месяцы, начиная с января 2011 года, Вы можете получить, выбрав интересующий диапазон дат из раскрывающегося списка и нажав кнопку "Ввод!".


*Определитесь, кто Вы:
робот инопланетянин человек

Внимание! Время в таблицах - всемирное. Для получения местного времени необходимо прибавить поправку, которая равна 8 ч.

Смотрите также архив погоды в соседних городах и на ближайших метеорологических станциях:

Погода в Короне (Филиппины) (98 км)
Погода в Калапане (Филиппины) (120 км)
Погода в Ромблоне (Филиппины) (136 км)
Погода на Куйо (Филиппины) (167 км)
Погода на Амбулонге (Филиппины) (192 км)
Погода в Тайябасе (Филиппины) (196 км)
Погода в Рохасе (Филиппины) (206 км)
Погода на Алабате (Филиппины) (220 км)
Погода в Сангли Пойнт (Филиппины) (239 км)
Погода в Аэропорту Ninoy Aquino (Филиппины) (241 км)

Пояснения к столбцам:

Ветер - указаны скорость ветра в м/с - средняя за 10 мин, порывы в срок и между сроками (в фигурных скобках) и направление, откуда дует ветер: С - северный, СВ - северо-восточный, В - восточный, ЮВ - юго-восточный, Ю - южный, ЮЗ - юго-западный, З - западный, СЗ - северо-западный.
Видимость - горизонтальная дальность видимости в метрах или километрах. При видимости от 1 до 10 км при отсутствии осадков обычно наблюдается дымка, при ухудшении видимости до 1 км и менее - туман. В сухую погоду видимость может ухудшаться дымом, пылью или мглою.
Явления - указаны атмосферные явления, наблюдавшиеся в срок или в последний час перед сроком; фигурными скобками обозначены явления, наблюдавшиеся между сроками (за 1-3 часа до срока); квадратными скобками обозначены град или гололедные отложения с указанием их диаметра в мм.
Облачность - указаны через наклонную черту общая и нижняя облачность в баллах и высота нижней границы облаков в метрах; квадратными скобками обозначены формы облаков: Ci - перистые, Cs - перисто-слоистые, Cc - перисто-кучевые, Ac - высококучевые, As - высокослоистые, Sc - слоисто-кучевые, Ns - слоисто-дождевые, Cu - кучевые, Cb - кучево-дождевые. Подробнее классификацию облаков см. в Атласе облаков (PDF).
T - Температура воздуха - температура, измеренная на высоте 2 м над землей.
Td - Температура точки росы - температура, при понижении до которой содержащийся в воздухе водяной пар достигнет насыщения.
f - Относительная влажность воздуха - влажноcть воздуха, измеренная на высоте 2 м над землей.
Te - Эффективная температура - температура, которую ощущает одетый по сезону человек в тени. Характеристика душности погоды. При расчете учитывается влияние влажности воздуха и скорости ветра на теплоощущения человека.
Tes - Эффективная температура на солнце - температура, которую ощущает человек, с поправкой на солнечный нагрев. Характеристика знойности погоды. Зависит от высоты солнца над горизонтом, облачности и скорости ветра. Ночью, в пасмурную погоду, а также при ветре 12 м/с и более поправка равна нулю.
P - Атмосферное давление - приведенное к уровню моря атмосферное давление.
Po - Атмосферное давление - измеренное на уровне метеостанции атмосферное давление.
Tmin - Минимальная температура - минимум температуры воздуха на высоте 2 м над землей.
Tmax - Максимальная температура - максимум температуры воздуха на высоте 2 м над землей.
R - Количество осадков - Количество выпавших осадков за период времени, мм. При наведении курсора мыши на число - период времени, за который выпало указанное количество осадков.
R24 - Количество осадков - Количество выпавших осадков за 24 часа, мм.
S - Снежный покров - Высота снежного покрова, см. При наведении курсора мыши на число - состояние снежного покрова и степень покрытия местности в баллах.